Helicity
143 198 178 192 299 305 330 415 369 382 227 253 350 263 262 161 179 120 142 158 139 164
168 200 271 237 287 294 321 321 413 363 285 357 282 280 232 193 161 168 162 136 160 134
157 149 213 188 261 304 303 286 318 348 343 400 281 337 162 202 228 180 238 119 131 142
120 222 226 238 211 189 192 248 362 496 554 312 253 181 275 201 248 234 144 103 96 151
142 142 153 153 168 170 199 315 408 393 284 281 191 298 293 251 318 329 113 47 100 129
115 136 147 169 189 215 249 299 285 292 276 335 261 316 470 545 369 153 50 54 84 138
121 139 152 177 179 180 180 200 252 270 344 321 285 472 493 550 175 80 64 96 103 130
146 144 144 147 152 183 200 225 215 257 378 314 367 583 568 291 103 95 92 104 119 119
159 149 155 160 158 165 187 209 279 370 491 626 499 717 234 162 118 102 102 126 137 95
167 156 146 147 150 173 209 273 342 398 396 460 433 332 181 153 144 130 126 130 112 100
166 174 180 192 204 216 230 245 243 261 273 303 219 187 155 124 113 123 94 91 85 98
210 223 217 198 159 148 123 143 173 154 130 130 102 133 94 94 138 126 107 104 95 102
209 213 190 134 106 86 95 105 122 125 119 97 94 70 93 110 140 139 150 134 130 136
213 186 148 127 121 108 98 91 102 98 91 86 91 95 133 149 180 189 197 196 184 179
Wind_Speed
19 17 19 21 23 25 26 25 21 21 23 20 23 21 26 36 39 40 44 43 45 46
19 20 24 25 21 24 25 22 22 22 24 24 23 23 29 39 39 41 42 45 44 42
21 21 25 26 25 24 21 24 23 21 21 27 30 32 34 37 40 40 47 43 42 44
21 24 24 21 21 24 24 24 24 24 24 30 34 37 36 36 39 42 47 45 44 42
22 24 23 23 25 26 27 26 26 27 29 29 32 29 32 35 40 46 50 45 45 45
25 29 29 29 30 31 28 27 27 26 25 24 25 27 32 35 45 55 50 48 46 46
32 33 34 34 34 31 26 24 22 22 23 25 24 28 33 42 50 54 51 50 49 49
36 37 38 37 32 28 25 23 21 21 24 25 23 31 40 48 53 55 55 54 54 52
39 38 36 33 30 27 24 23 23 23 24 27 37 38 56 57 59 60 63 63 60 58
38 36 34 32 30 30 30 28 27 27 28 30 36 48 54 61 63 67 65 63 62 63
37 36 35 34 34 33 30 28 27 29 29 37 46 49 56 64 68 62 63 64 64 66
38 37 36 36 36 34 32 32 33 35 40 44 46 51 61 62 60 67 69 66 65 65
38 38 38 38 39 38 39 40 41 43 46 51 55 53 56 62 69 73 73 72 71 69
40 41 42 42 43 43 43 44 46 49 53 56 59 61 64 66 72 75 79 78 77 72
Wind_Direction
236 244 255 267 278 282 293 291 284 280 294 290 300 303 316 322 320 324 327 328 329 331
246 253 277 282 275 288 291 286 283 278 284 290 297 302 317 315 319 322 325 326 327 328
264 269 291 294 285 290 287 288 286 284 283 292 296 305 313 315 318 320 326 325 325 326
282 293 299 298 289 290 291 287 286 283 284 288 293 304 311 314 322 321 325 324 322 323
302 303 303 303 304 303 299 295 288 285 288 290 296 305 312 315 324 326 321 318 316 319
312 313 311 311 312 309 303 295 288 285 283 293 294 306 311 316 318 321 318 318 315 315
321 320 318 317 315 312 308 303 294 286 285 296 296 309 318 320 320 320 320 318 315 312
328 327 326 326 326 324 319 316 311 305 305 304 300 317 321 322 321 319 319 317 314 309
333 334 336 338 338 336 332 326 321 316 313 316 307 316 314 317 320 318 318 316 316 314
341 343 344 344 343 339 335 333 329 323 318 312 310 312 314 317 318 318 317 317 317 317
350 349 350 349 346 345 343 338 332 325 319 315 313 313 315 317 319 319 318 317 316 315
355 355 355 355 354 353 351 345 337 331 323 320 318 320 319 321 322 320 319 319 319 317
3 2 358 356 353 351 348 344 342 337 332 326 324 325 325 324 322 320 320 319 319 317
1 357 355 352 350 348 346 344 341 337 334 330 329 329 329 329 326 323 321 320 318 318